Location: Gazon
(48.1318°N, 1.2708°W)
Time: 23:21:27
(UTC+00:00)

NOSS 2-2 (C) - Pass Details

Date: 18 September 2020
Orbit: 468 x 1740 km, 63.3° (Epoch: 19 October)

Event Time Altitude Azimuth Distance (km) Brightness Sun altitude
Rises 20:03:58 0° 228° (SW) 2,500 7.0 -19.1°
Reaches altitude 10° 20:06:01 10° 232° (SW) 1,630 6.0 -19.4°
Maximum altitude 20:09:30 63° 314° (NW) 560 3.5 -19.9°
Drops below altitude 10° 20:13:29 10° 37° (NE) 1,865 5.9 -20.5°
Enters shadow 20:15:46 - 40° (NE) 2,828 6.8 -20.9°
